Other Public Products
Issued by NWS Grand Forks, ND

Home | Current Version | Previous Version | Text Only | Print | Product List | Glossary Off
Versions: 1 2 3 4 5 6 7 8 9 10 11 12 13 14 15 16 17 18 19 20 21 22 23 24 25 26 27 28 29 30 31 32 33 34 35 36 37 38 39 40 41 42 43 44 45 46 47 48 49 50

000
FPUS83 KFGF 250431
OPUFGF
PRAIRIE TO PINES WEATHER ROUNDUP
NATIONAL WEATHER SERVICE EASTERN NORTH DAKOTA/GRAND FORKS ND
1000 PM CST SAT FEB 24 2018

 **SATELLITE DATA USED TO AUGMENT SKY COVER AT AUTOMATED STATIONS**
 *****  WEATHER ACROSS EASTERN NORTH DAKOTA  *****

CITY           SKY/WX    TMP DP  RH WIND       PRES   REMARKS
GRAND FORKS    LGT SNOW  17  15  92 CALM      29.60F FOG
GRND FORKS AFB FAIR      16  12  86 CALM      29.60F BLWGSNOW
GRND FORKS NWS   N/A     15  14  96 N3        29.59F
BUXTON           N/A     15  15  99 N2          N/A
DEVILS LAKE    CLOUDY    16  14  92 S6        29.57F WCI   7
FARGO          LGT SNOW  15  13  91 N13       29.59F FOG     WCI   1
WAHPETON ARPT  CLOUDY    18  14  86 NW8       29.58F WCI   7
$$

 *****  WEATHER ACROSS CENTRAL AND WESTERN NORTH DAKOTA  *****

CITY           SKY/WX    TMP DP  RH WIND       PRES   REMARKS
JAMESTOWN      CLOUDY    15  12  88 SW6       29.56F WCI   6
BISMARCK       FAIR      12   7  80 W5        29.60S WCI   4
MINOT          CLOUDY    21  12  68 SW12      29.53F WCI   9
MINOT AFB      CLOUDY    18  12  79 W7          N/A  WCI   8
GARRISON         N/A     15   9  76 W12       29.55S WCI   2
WILLISTON      CLOUDY    19  15  84 W8        29.59R WCI   9
DICKINSON      FAIR      15   8  73 W17       29.55S WCI  -1
HETTINGER      FAIR       7   2  80 W7        29.62S WCI  -5
$$

 *****  OTHER OBSERVATIONS NORTHEAST NORTH DAKOTA  *****

CITY           SKY/WX    TMP DP  RH WIND       PRES   REMARKS
WALHALLA       FAIR      16  16 100 SE7       29.59F FOG     WCI   6
LANGDON        NOT AVBL
CAVALIER         N/A     16  16 100 SE6       29.60F WCI   7
GRAFTON        NOT AVBL
CANDO          CLOUDY    18  18 100 S6        29.57F WCI   9
FORT TOTTEN      N/A     16  14  90 S3        29.95S
ROLLA          CLOUDY    14  14 100 SW8       29.51F WCI   3
RUGBY          NOT AVBL
 ***** THE ABOVE OBSERVATIONS ARE NON NWS ARE NOT QUALITY
        CONTROLLED AND MAY MIS-REPORT RAIN FOR SNOW...
$$

 *****  OTHER OBSERVATIONS SOUTHEAST NORTH DAKOTA *****

CITY           SKY/WX    TMP DP  RH WIND       PRES   REMARKS
COOPERSTOWN    LGT SNOW  16  14  93 SW5       29.58S WCI   9
VALLEY CITY    NOT AVBL
OAKES            N/A     12  12 100 SW5       29.59S WCI   4
GWINNER          N/A     10  10 100 CALM      29.58F
BUFFALO          N/A     15  12  91 NW2         N/A
WYNDMERE       NOT AVBL
 ***** THE ABOVE OBSERVATIONS ARE NON NWS ARE NOT QUALITY
       CONTROLLED AND MAY MIS-REPORT RAIN FOR SNOW...
$$

  *****  WEATHER ACROSS NORTHERN MINNESOTA  *****

CITY           SKY/WX    TMP DP  RH WIND       PRES   REMARKS
FLAG ISLAND    CLOUDY    19  12  73 CALM      29.62F
WARROAD        MIX PCPN  21  14  73 CALM      29.62F
ROSEAU         LGT SNOW  19  16  86 NE3       29.61F
HALLOCK        LGT SNOW  18  16  93 E3        29.62F
THF RVR FALLS  LGT SNOW  18  16  93 NE7       29.59F FOG     WCI   8
HALSTAD        NOT AVBL
FOSSTON        LGT SNOW  16  14  93 N8        29.56F WCI   5
BAUDETTE       LGT SNOW  22  19  89 E7        29.58F VSB 1   WCI  13
WASKISH        LGT SNOW  21  19  93 NE8       29.55F WCI  12
CROOKSTON      LGT SNOW  19  18  93 E5        29.61F WCI  13
$$
  *****  WEATHER ACROSS CENTRAL AND WEST MINNESOTA  *****

CITY           SKY/WX    TMP DP  RH WIND       PRES   REMARKS
BEMIDJI        LGT SNOW  19  18  93 N3        29.51F VSB 1
PARK RAPIDS    LGT SNOW  20  16  84 N6        29.49F FOG     WCI  12
WADENA         LGT SNOW  19  18  93 N5        29.50F WCI  13
DETROIT LAKES  LGT SNOW  21  19  93 CALM      29.54F
MOORHEAD       MIX PCPN  16  12  86 N9        29.59F WCI   4
FERGUS FALLS   FLURRIES  18  18 100 NW8       29.55F WCI   7
ELBOW LAKE     LGT SNOW  19  18  96 W6        29.54F WCI  10
MORRIS MN      LGT SNOW  18  16  93 W10       29.54F WCI   6
STAPLES        LGT SNOW  19  18  93 N5        29.49F WCI  13
WHEATON        FAIR      16  12  86 W8        29.60F WCI   5
$$
  *****  WEATHER ELSEWHERE ACROSS MINNESOTA  *****

CITY           SKY/WX    TMP DP  RH WIND       PRES   REMARKS
DULUTH         SNOW      27  24  89 E20G30    29.47F VSB 1/4 WCI  13
INTRNTL FALLS  SNOW      23  21  92 NE7       29.57F VSB 1/4 WCI  15
ELY            LGT SNOW  23  21  93 E5        29.52F VSB 1   WCI  17
CLOQUET        LGT SNOW  25  21  86 E13       29.47F VSB 1   WCI  13
BRAINERD       LGT SNOW  23  20  88 N6        29.50F VSB 1   WCI  16
HIBBING        SNOW      24  22  91 E7        29.52F VSB 1/4 WCI  16
ALEXANDRIA     LGT SNOW  20  18  92 NW6       29.52F FOG     WCI  12
SAINT CLOUD    LGT SNOW  26  25  96 SW5       29.48F VSB 1   WCI  20
MINNEAPOLIS    SNOW      29  29 100 SW5       29.48F VSB 1/2 WCI  24
$$

  *****  WEATHER ACROSS SOUTH DAKOTA  *****

CITY           SKY/WX    TMP DP  RH WIND       PRES   REMARKS
SIOUX FALLS    FAIR      12   8  84 W15G22    29.68R WCI  -4
BROOKINGS      CLOUDY    14  11  87 W16       29.60S WCI  -2
WATERTOWN      CLOUDY    13  12  96 NW16      29.57S WCI  -3
HURON          MOCLDY     9   7  92 W8        29.67S WCI  -3
SISSETON         N/A     13  11  92 NW9       29.58F WCI   1
ABERDEEN       LGT SNOW  13  11  92 SW7       29.64R FOG     WCI   3
MITCHELL       FAIR      10   7  87 W13       29.72S WCI  -5
PIERRE         FAIR      17  10  74 W17       29.69R WCI   1
MOBRIDGE       FAIR       8   3  80 W7        29.61R WCI  -3
RAPID CITY     FAIR       6   2  83 CALM      29.70S
$$

  *****  SOME WEATHER IN NEARBY STATES *****

CITY           SKY/WX    TMP DP  RH WIND       PRES   REMARKS
GLASGOW MT     CLOUDY    23  19  85 W16       29.66R WCI  10
GREAT FALLS MT FAIR      11   4  73 W12       29.72R WCI  -3
CHEYENNE WY    FAIR      21   1  41 W10       29.78R WCI  10
SCOTTSBLUFF NE FAIR      26  13  57 W15       29.80R WCI  14
OMAHA NE       FAIR      29  24  82 W6        29.78R WCI  23
DES MOINES IA  MOCLDY    30  25  81 W20       29.71R WCI  17
DAVENPORT IA   CLOUDY    37  34  89 W18G25    29.60R
CHICAGO IL     CLOUDY    46  43  89 SE17G25   29.50F
EAU CLAIRE WI  LGT SNOW  31  30  96 SE3       29.45F VSB 1
LA CROSSE WI   LGT SNOW  34  33  96 S8        29.48F FOG
$$

  *****  SOME NATIONAL WEATHER *****

CITY           SKY/WX    TMP DP  RH WIND       PRES   REMARKS
LA GUARDIA NY  CLOUDY    44  40  85 NE8       30.21F
RALEIGH NC     MOCLDY    68  59  73 S9        30.07S
ATLANTA GA     FAIR      70  59  68 SW12      30.07R
NEW ORLEANS LA FAIR      73  71  93 S8        30.04S
OKLAHOMA CITY  FAIR      35  32  88 S3        30.00R
ALBUQUERQUE NM FAIR      36   9  32 S7        30.03S
SALT LAKE CITY CLOUDY    28  20  71 S9        30.00S WCI  19
LOS ANGELES CA FAIR      54  38  54 W9        30.21S
BOISE ID       MOCLDY    28  24  85 W3        30.07R
SEATTLE WA     CLOUDY    43  30  60 SW16G23   30.12F
$$

*** WEATHER ACROSS MANITOBA...SASKATCHEWAN AND ONTARIO ***
                ***ONTARIO***

CITY           SKY/WX    TMP DP  RH WIND       PRES   REMARKS
GERALDTON      CLOUDY    18  14  86 E3        29.82F
THUNDER BAY    FLURRIES  25  21  86 E17       29.70F WCI  11
SIOUX LOOKOUT  CLOUDY    25  10  54 E5        29.65F WCI  19
TORONTO        CLOUDY    36  25  64 E9        30.06F
BIG TROUT LK   CLEAR     21   9  58 S8        29.62F WCI  12
PICKLE LAKE    NOT AVBL
DRYDEN         CLOUDY    23  12  63 E5        29.64F WCI  17
KENORA         CLOUDY    23  10  58 E2        29.63F
$$
                *** MANITOBA***

CITY           SKY/WX    TMP DP  RH WIND       PRES   REMARKS
BRANDON        FOG        1  -4  78 NW3       29.53F VSB 1/8
DAUPHIN        CLOUDY    19  12  73 SW12      29.52F WCI   7
ISLAND LAKE    CLEAR     19   9  63 SW5       29.56S WCI  13
PILOT MOUND      N/A     18  16  93 S10         N/A  WCI   6
THE PAS        FLURRIES  16  10  79 CALM      29.50F
THOMPSON       FLURRIES  12   9  85 S2        29.51F
WINNIPEG       LGT SNOW  18  14  86 S13       29.61F DRFTSNOWWCI   4
LYNN LAKE      CLOUDY     7   3  85 N8        29.52R WCI  -6
CHURCHILL      MOCLDY     1  -4  78 NW14      29.56S WCI -17
GILLAM         LGT SNOW  12  10  92 SW5       29.53F WCI   4
$$
                ***SASKATCHEWAN***

CITY           SKY/WX    TMP DP  RH WIND       PRES   REMARKS
ESTEVAN        FLURRIES  21  18  86 W13       29.52S WCI   9
KINDERSLEY     CLOUDY    19  14  79 W5        29.58S WCI  13
LLOYDMINSTER   PTCLDY     9   7  92 NW3       29.55S
PRINCE ALBERT  MOCLDY    18  10  73 NW7       29.56R WCI   8
REGINA         MOCLDY     7   5  92 W8        29.53S WCI  -6
YORKTON        MOCLDY    18  14  86 SW8       29.49S WCI   7
N. BATTLEFORD  CLOUDY    21  16  79 NW6       29.58S W



USA.gov is the U.S. government's official web portal to all federal, state and local government web resources and services.